GW6950 Weather Reports


Display with metric or nautical units.
time (UTC)temp
F
wind
direction
speed
MPH
gust
MPH
rain 1hr
in
rain 24hr
in
rain mn
in
humidity
%
barometer
mb
20260503232929 89 285 1.0 3.0 0.00 0.00 0.00 33 1009.2
20260503231931 89 313 1.0 2.0 0.00 0.00 0.00 34 1009.3
20260503230930 88 310 1.0 2.0 0.00 0.00 0.00 34 1009.4
20260503225930 88 255 0.0 3.0 0.00 0.00 0.00 38 1009.6
20260503224930 87 260 1.0 3.0 0.00 0.00 0.00 36 1009.8
20260503223929 86 268 1.0 3.0 0.00 0.00 0.00 36 1010.0
20260503222930 85 331 0.0 4.0 0.00 0.00 0.00 37 1009.9
20260503221930 85 27 1.0 4.0 0.00 0.00 0.00 38 1010.1
20260503220929 84 255 1.0 3.0 0.00 0.00 0.00 38 1010.2
20260503220405 84 354 0.0 3.0 0.00 0.00 0.00 42 1010.4
20260503215359 83 255 1.0 3.0 0.00 0.00 0.00 43 1010.5
20260503213928 82 262 1.0 3.0 0.00 0.00 0.00 42 1010.6
20260503212922 82 256 1.0 3.0 0.00 0.00 0.00 45 1010.8
20260503211921 82 249 2.0 3.0 0.00 0.00 0.00 43 1010.6
20260503210920 80 232 2.0 3.0 0.00 0.00 0.00 44 1011.1
20260503205916 80 251 2.0 3.0 0.00 0.00 0.00 47 1011.1
20260503204915 78 260 0.0 3.0 0.00 0.00 0.00 45 1011.2
20260503203910 77 257 2.0 3.0 0.00 0.00 0.00 51 1011.3
20260503202907 77 253 0.0 3.0 0.00 0.00 0.00 55 1011.5
20260503201907 76 250 1.0 3.0 0.00 0.00 0.00 54 1011.8
20260503200902 75 252 2.0 3.0 0.00 0.00 0.00 55 1012.0
20260503200345 74 246 0.0 3.0 0.00 0.00 0.00 56 1012.0
20260503194901 74 245 1.0 3.0 0.00 0.00 0.00 54 1012.3
20260503194406 73 248 1.0 3.0 0.00 0.00 0.00 56 1012.1
20260503192859 72 254 2.0 3.0 0.00 0.00 0.00 61 1012.3
20260503191857 72 244 2.0 3.0 0.00 0.00 0.00 59 1012.4
20260503190857 71 255 1.0 3.0 0.00 0.00 0.00 62 1012.7
20260503190344 69 256 1.0 3.0 0.00 0.00 0.00 66 1012.6
20260503184852 69 247 2.0 3.0 0.00 0.00 0.00 66 1012.8
20260503183850 68 245 2.0 3.0 0.00 0.00 0.00 69 1013.0
20260503182848 67 241 1.0 3.0 0.00 0.00 0.00 68 1013.0
20260503181844 66 231 1.0 2.0 0.00 0.00 0.00 70 1013.2
20260503180841 65 221 2.0 2.0 0.00 0.00 0.00 69 1013.2
20260503175838 64 219 1.0 2.0 0.00 0.00 0.00 77 1013.3
20260503174830 63 218 1.0 2.0 0.00 0.00 0.00 83 1013.3
20260503173830 62 216 1.0 2.0 0.00 0.00 0.00 81 1013.4
20260503172829 61 216 0.0 2.0 0.00 0.00 0.00 84 1013.5
20260503171829 60 217 1.0 2.0 0.00 0.00 0.00 84 1013.5
20260503170828 60 216 1.0 2.0 0.00 0.00 0.00 83 1013.5
20260503150802 53 222 0.0 1.0 0.00 0.00 0.00 89 1013.9
20260503130744 52 170 0.0 1.0 0.00 0.00 0.00 86 1013.7
20260503110726 53 170 0.0 0.0 0.00 0.00 0.00 84 1013.8
20260503110216 53 170 0.0 0.0 0.00 0.00 0.00 83 1013.8
20260503080702 57 170 0.0 0.0 0.00 0.00 0.00 77 1014.1
20260503072702 58 170 0.0 0.0 0.00 0.00 0.00 74 1013.9
20260503071701 58 170 0.0 0.0 0.00 0.00 0.00 73 1014.0
20260503070701 59 170 0.0 0.0 0.00 0.00 0.00 74 1013.7
20260503054702 62 170 0.0 0.0 0.00 0.00 0.00 65 1014.0
20260503053658 62 170 0.0 0.0 0.00 0.00 0.00 64 1013.7
20260503053141 63 170 0.0 0.0 0.00 0.00 0.00 63 1013.8
20260503051654 64 170 0.0 0.0 0.00 0.00 0.00 63 1013.7
20260503050653 64 170 0.0 0.0 0.00 0.00 0.00 62 1013.8
20260503045653 65 170 0.0 0.0 0.00 0.00 0.00 61 1013.6
20260503044650 66 170 0.0 0.0 0.00 0.00 0.00 60 1013.5
20260503044127 66 170 0.0 0.0 0.00 0.00 0.00 60 1013.4
20260503042647 67 170 0.0 0.0 0.00 0.00 0.00 61 1013.2
20260503041645 68 170 0.0 0.0 0.00 0.00 0.00 58 1013.2
20260503040642 69 170 0.0 0.0 0.00 0.00 0.00 58 1013.1
20260503035639 70 170 0.0 0.0 0.00 0.00 0.00 56 1012.8
20260503034636 70 170 0.0 0.0 0.00 0.00 0.00 56 1012.7
20260503033636 72 170 0.0 1.0 0.00 0.00 0.00 54 1012.6
20260503032631 73 170 0.0 1.0 0.00 0.00 0.00 53 1012.7
20260503032115 75 170 0.0 1.0 0.00 0.00 0.00 50 1012.4
20260503030629 76 170 0.0 1.0 0.00 0.00 0.00 48 1012.3
20260503025628 77 170 0.0 1.0 0.00 0.00 0.00 47 1012.2
20260503024627 77 170 0.0 1.0 0.00 0.00 0.00 46 1012.0
20260503024042 77 168 0.0 2.0 0.00 0.00 0.00 46 1012.1
20260503022601 77 169 0.0 2.0 0.00 0.00 0.00 44 1011.7
20260503021601 77 147 0.0 2.0 0.00 0.00 0.00 45 1011.9
20260503020601 77 187 0.0 2.0 0.00 0.00 0.00 44 1011.8
20260503015601 77 105 0.0 3.0 0.00 0.00 0.00 44 1011.9
20260503014601 78 187 0.0 3.0 0.00 0.00 0.00 44 1011.8
20260503013601 78 176 0.0 3.0 0.00 0.00 0.00 42 1011.8
20260503012603 79 220 0.0 4.0 0.00 0.00 0.00 43 1011.8
20260503011602 79 195 1.0 6.0 0.00 0.00 0.00 43 1012.0
20260503010602 79 295 0.0 4.0 0.00 0.00 0.00 43 1011.9
20260503010038 80 14 0.0 3.0 0.00 0.00 0.00 43 1011.9
20260503004601 80 58 0.0 4.0 0.00 0.00 0.00 43 1012.0
20260503003601 81 117 0.0 2.0 0.00 0.00 0.00 43 1012.2
20260503002601 81 32 1.0 3.0 0.00 0.00 0.00 41 1012.3
20260503001602 81 76 0.0 3.0 0.00 0.00 0.00 44 1012.1
20260503000603 81 102 2.0 4.0 0.00 0.00 0.00 42 1012.3
20260502235601 82 88 1.0 4.0 0.00 0.00 0.00 41 1012.4
20260502234600 82 318 0.0 4.0 0.00 0.00 0.00 41 1012.5